Temperature
14 14 14 14 14 14 14 14 14 14 14 15 15 15 15 15 15 15 15 15 15 15 15 15 15 15 15 15 15 15 15 15 15 15 15 14 14 15
15 14 14 14 14 14 14 14 14 14 14 14 14 14 15 15 15 15 14 15 15 15 15 15 15 15 15 15 15 15 15 15 15 15 15 15 15 15
14 14 14 14 14 14 14 14 14 13 13 14 14 14 14 14 14 15 15 15 15 15 15 15 15 15 15 15 15 15 15 15 15 15 15 15 15 15
14 14 14 13 14 14 14 13 13 13 13 13 13 14 14 14 14 14 15 15 15 15 15 15 15 15 15 15 15 14 14 14 15 15 15 15 15 15
14 14 13 13 13 13 13 13 13 13 13 13 13 13 13 13 14 14 14 15 15 15 15 15 15 15 15 15 14 14 14 14 14 14 14 15 15 15
14 14 14 13 13 13 13 13 13 13 13 13 13 13 13 13 13 14 14 14 14 14 15 15 15 15 15 15 14 14 14 14 14 14 14 14 14 14
14 14 14 14 14 13 13 13 13 13 13 13 13 13 13 13 13 13 13 14 14 14 14 14 14 14 14 15 15 14 14 14 14 14 14 14 14 14
14 14 14 14 14 14 14 14 13 13 13 13 13 13 13 13 13 13 13 13 13 14 14 14 14 14 14 14 14 14 14 14 14 14 13 14 14 14
14 14 14 13 14 13 13 14 13 13 13 13 13 13 13 13 13 12 12 13 13 13 13 13 13 13 14 13 14 14 14 14 14 13 13 13 13 14
14 14 14 14 13 13 13 13 13 13 13 13 12 12 12 12 12 12 12 12 12 12 12 12 13 13 13 13 13 14 13 13 13 13 13 13 13 13
13 13 13 13 13 14 14 14 13 13 13 13 13 13 12 12 12 12 12 12 12 12 12 12 12 12 12 13 13 13 13 13 13 13 13 12 12 12
13 13 13 13 13 14 13 13 13 13 13 13 13 13 13 12 12 12 12 12 12 11 12 12 12 11 12 12 12 12 12 12 12 12 12 12 12 11
13 13 13 13 13 13 13 13 13 13 13 13 13 13 13 12 12 12 12 12 12 11 11 11 11 11 11 11 11 11 11 12 12 12 12 12 11 11
12 12 12 13 13 13 13 13 13 13 13 13 13 12 12 12 12 12 12 12 12 11 11 11 11 11 11 11 11 11 11 11 11 11 11 11 11 11
12 12 12 12 12 13 13 13 13 13 13 13 12 12 12 12 12 12 12 11 11 11 11 11 11 11 11 10 10 10 10 10 10 11 11 11 11 11
11 11 12 12 12 12 12 12 12 12 12 12 12 12 12 12 11 11 11 11 11 11 10 10 10 10 10 10 10 10 10 10 10 10 10 10 10 10
10 10 10 10 11 11 11 11 12 12 12 11 11 11 11 11 11 11 11 11 10 10 10 10 10 10 10 10 10 10 10 10 10 10 10 10 10 10
10 10 10 10 10 10 10 11 11 11 11 11 10 10 10 10 10 10 10 10 10 10 9 9 9 10 10 10 10 9 9 9 9 9 9 9 9 9
10 10 10 10 10 10 10 10 10 10 10 10 10 10 10 10 9 9 9 9 9 9 9 9 9 9 9 9 9 9 9 8 8 8 8 8 8 8
9 9 9 9 9 9 9 9 9 9 9 9 9 9 9 9 9 9 9 9 8 8 8 8 8 8 8 8 8 8 8 8 8 8 8 8 8 8
8 8 8 8 9 9 9 9 9 9 9 9 9 8 8 8 8 8 8 8 8 8 8 8 8 8 7 7 7 7 7 7 7 7 7 7 7 7
8 8 8 8 8 8 8 8 8 8 8 8 8 8 7 7 7 7 7 7 7 7 7 7 7 7 7 7 7 7 7 6 6 6 6 6 6 5
7 7 8 8 8 8 8 8 8 8 7 7 7 7 7 7 7 7 7 7 6 6 6 6 6 6 6 6 6 6 6 6 6 6 5 5 5 5
Wind_Speed
8 9 9 8 8 9 9 9 8 7 7 5 4 5 7 9 8 12 12 16 16 13 11 9 7 6 4 4 3 3 4 6 6 7 6 5 5 6
6 7 8 8 8 8 8 8 8 8 6 3 4 4 4 5 8 11 12 14 16 15 14 12 10 9 8 7 6 5 5 6 7 7 7 6 5 5
6 7 8 8 7 7 7 7 8 8 9 5 3 5 6 6 5 8 10 11 13 18 17 15 13 12 11 10 9 8 7 7 7 7 8 7 6 5
5 5 6 6 7 7 7 8 8 8 8 8 6 6 9 8 7 7 7 9 11 16 19 17 16 15 14 13 12 11 10 9 8 8 8 8 7 6
4 5 5 5 6 6 7 7 7 8 8 8 7 6 6 5 6 7 8 7 10 10 15 17 18 18 17 17 16 14 13 11 10 9 8 8 7 7
4 4 4 4 5 4 4 5 6 7 7 8 7 5 5 4 5 6 7 7 8 9 11 13 16 19 20 20 19 18 17 15 13 12 11 9 7 6
6 5 4 2 5 4 4 4 4 5 5 6 6 5 5 4 5 5 6 6 7 7 8 9 10 12 15 19 21 21 20 18 17 15 14 12 10 9
7 6 5 5 6 6 6 5 5 4 3 3 4 5 6 6 6 5 5 5 5 4 6 7 7 8 9 12 15 21 22 21 19 18 17 15 13 12
8 7 6 5 5 6 7 9 8 7 5 5 4 3 3 3 5 6 6 6 4 1 2 5 5 7 7 9 9 14 19 20 20 20 18 17 16 14
9 8 8 8 7 5 5 6 5 4 5 6 4 2 1 1 1 2 2 2 1 1 2 3 3 4 5 7 7 13 16 18 19 19 19 18 17 16
8 8 8 8 5 2 7 6 5 3 3 4 4 2 2 1 1 1 2 2 2 2 3 2 2 2 4 4 3 5 11 15 17 18 18 18 18 16
5 6 4 4 2 4 7 6 5 2 2 4 5 5 4 5 5 3 2 2 1 2 3 3 1 1 3 2 1 3 5 9 14 16 18 18 17 14
3 3 2 3 2 4 7 6 3 3 2 2 2 2 1 1 2 2 1 2 2 1 2 3 2 2 2 3 2 2 2 2 4 8 14 17 18 16
1 1 2 2 1 3 4 1 2 3 2 1 1 1 1 1 1 1 1 0 0 0 1 2 2 2 2 3 3 2 2 3 3 3 3 6 14 19
3 5 4 2 2 3 5 3 3 2 2 2 2 2 2 2 1 1 1 1 1 2 1 1 2 2 3 4 4 4 4 3 2 2 2 3 3 5
3 4 5 5 5 6 5 3 2 2 1 2 3 3 2 2 1 1 1 2 1 1 1 0 1 3 4 5 6 6 5 4 3 3 3 4 4 6
2 3 3 4 5 5 5 5 4 3 3 3 3 2 2 1 1 1 2 2 3 2 2 2 3 4 6 6 6 6 5 4 4 3 3 5 5 5
4 5 5 5 5 5 5 5 5 4 4 3 3 2 2 2 2 1 2 3 3 3 3 4 4 5 6 4 3 5 5 5 5 4 4 5 7 6
8 7 7 6 6 6 6 5 5 5 5 4 4 4 3 3 2 2 3 3 4 4 4 4 4 5 7 7 1 0 6 7 7 6 5 6 8 8
8 8 7 7 6 6 6 6 5 5 5 5 4 4 4 4 3 4 4 4 5 5 5 4 4 5 5 6 6 5 4 6 7 8 8 7 8 8
8 8 7 7 7 6 6 6 6 5 5 5 4 4 4 4 4 4 4 4 5 5 6 5 5 4 5 5 5 5 4 2 4 5 7 7 8 7
7 7 7 7 6 6 6 5 5 5 5 5 4 4 4 4 5 5 5 5 5 5 6 6 6 5 4 4 6 7 6 5 2 1 1 2 4 5
6 6 6 6 6 5 5 5 5 5 5 5 5 5 5 5 5 5 5 5 5 6 6 6 5 4 4 4 5 6 7 7 6 4 2 2 1 3
Wind_Direction
243 246 246 248 246 242 239 234 232 230 228 229 224 210 215 222 194 210 223 195 199 206 210 213 216 220 225 235 254 285 301 306 305 300 298 307 323 339
242 246 245 244 241 236 234 233 232 238 241 227 222 207 191 214 208 230 232 179 195 206 211 214 217 221 227 234 243 256 275 290 295 293 289 290 302 321
238 243 247 245 240 233 230 228 226 227 239 240 239 245 233 235 205 227 232 217 213 204 210 214 218 222 227 233 240 247 259 272 283 288 284 279 283 297
248 248 252 248 245 237 230 229 228 226 235 242 232 239 250 254 251 239 231 230 234 198 204 213 218 222 226 231 236 241 248 258 269 278 278 274 274 283
248 255 257 252 250 244 238 237 233 230 228 235 236 227 236 243 248 247 239 236 237 208 203 216 220 223 227 231 233 236 241 248 256 264 268 269 270 276
235 245 254 256 263 260 253 252 245 239 231 235 236 224 220 222 233 240 241 229 232 225 218 221 222 222 228 231 233 235 238 242 247 251 253 255 257 263
227 229 236 299 344 311 296 285 265 253 242 238 238 228 215 200 219 226 239 244 242 232 230 222 220 227 226 229 232 234 234 235 238 241 243 245 246 250
228 227 213 217 221 234 263 287 300 292 289 261 248 242 234 223 219 215 222 232 239 215 235 243 233 242 244 244 222 219 225 229 231 233 236 237 239 243
234 227 218 224 228 235 214 222 236 237 264 293 287 282 276 245 223 217 217 225 236 198 245 264 255 259 265 259 230 218 222 224 227 229 231 232 234 237
234 235 229 228 221 249 249 244 250 238 235 253 287 322 357 11 235 229 221 216 208 171 199 261 268 273 291 284 239 230 232 232 232 231 231 231 232 234
232 235 241 242 132 216 264 264 259 247 203 247 314 355 51 100 135 162 159 178 212 203 188 227 284 303 295 288 301 251 246 242 240 238 235 232 230 232
233 229 222 264 110 217 251 262 270 269 222 192 208 209 214 189 198 230 217 223 230 225 180 199 231 254 281 253 294 295 264 242 240 240 238 234 226 231
243 229 175 141 259 252 262 271 320 323 270 225 194 174 173 178 197 220 241 255 260 245 172 193 231 235 270 291 267 253 286 292 254 241 233 231 224 225
352 359 65 51 286 273 255 83 94 262 255 207 170 141 118 95 70 58 29 322 272 268 184 198 234 248 271 284 286 280 275 271 278 285 280 218 224 230
39 42 39 28 191 137 98 125 180 199 179 158 134 106 84 88 84 64 31 24 99 105 110 184 238 252 261 279 293 295 301 294 273 277 277 262 246 227
81 97 96 73 80 85 108 115 107 94 114 114 109 112 116 108 80 34 359 332 294 179 134 74 289 281 281 283 286 291 292 290 291 295 294 281 263 249
52 87 88 90 87 86 84 82 88 100 97 100 109 113 104 97 77 30 350 326 322 328 328 331 313 293 279 283 290 298 310 309 303 299 295 294 280 255
54 75 72 70 71 74 78 77 73 70 72 78 78 72 60 46 48 29 347 326 323 328 334 337 329 315 292 256 234 293 306 312 315 309 292 295 298 294
59 59 57 57 58 59 59 62 59 52 50 57 56 49 39 27 16 1 347 337 333 335 339 338 333 326 317 317 351 348 327 327 325 317 309 300 301 310
51 51 51 50 53 55 56 56 57 55 51 50 45 36 25 15 6 359 357 354 341 334 332 336 337 330 317 316 319 321 319 324 328 325 326 323 310 298
49 47 43 42 43 44 45 46 46 43 40 40 36 28 20 12 4 356 355 0 339 336 335 336 349 326 305 302 297 307 339 15 338 328 330 324 319 319
47 46 42 38 36 36 35 32 36 36 31 28 20 13 8 2 358 355 353 350 346 341 332 330 338 335 328 320 324 331 337 346 10 107 56 343 331 329
44 44 41 34 28 26 27 27 28 27 20 10 5 1 358 356 356 356 356 355 349 344 339 338 341 341 340 339 335 338 345 350 351 348 36 84 344 304
Height
1522 1522 1522 1522 1523 1524 1525 1527 1529 1529 1530 1532 1534 1535 1536 1537 1538 1539 1541 1541 1542 1542 1542 1543 1543 1543 1544 1544 1543 1543 1542 1540 1539 1538 1537 1536 1535 1533
1519 1518 1518 1519 1519 1519 1521 1522 1524 1525 1526 1527 1530 1532 1533 1534 1535 1536 1538 1538 1538 1539 1539 1540 1540 1541 1541 1541 1541 1541 1540 1538 1537 1536 1534 1533 1532 1531
1517 1516 1516 1516 1515 1516 1517 1518 1519 1521 1522 1523 1525 1528 1529 1531 1532 1532 1534 1534 1535 1536 1536 1537 1538 1538 1538 1538 1538 1538 1537 1536 1535 1534 1532 1531 1530 1529
1516 1515 1514 1514 1513 1513 1514 1515 1515 1516 1518 1518 1520 1522 1524 1526 1527 1528 1529 1530 1532 1532 1533 1534 1534 1535 1535 1535 1535 1535 1534 1533 1533 1531 1530 1529 1528 1527
1515 1514 1514 1512 1512 1511 1511 1512 1512 1513 1513 1514 1515 1517 1519 1521 1522 1523 1525 1526 1527 1528 1529 1530 1530 1531 1531 1532 1532 1531 1531 1530 1530 1529 1528 1527 1525 1524
1514 1513 1513 1512 1511 1511 1510 1510 1510 1510 1510 1510 1511 1512 1514 1515 1516 1518 1520 1521 1522 1523 1524 1525 1526 1527 1527 1527 1527 1527 1527 1527 1526 1526 1525 1524 1523 1522
1514 1513 1512 1511 1510 1509 1509 1509 1508 1507 1507 1507 1507 1508 1509 1510 1511 1513 1514 1516 1517 1519 1520 1521 1521 1522 1522 1522 1522 1523 1523 1523 1522 1522 1521 1520 1519 1518
1513 1512 1511 1510 1509 1509 1508 1507 1507 1507 1506 1505 1505 1505 1505 1506 1507 1508 1509 1511 1512 1514 1515 1517 1517 1517 1518 1518 1517 1518 1518 1518 1517 1517 1517 1516 1516 1515
1511 1511 1510 1509 1508 1509 1508 1507 1506 1505 1505 1504 1504 1503 1503 1502 1503 1503 1504 1506 1507 1509 1510 1511 1512 1512 1513 1513 1513 1513 1513 1513 1513 1512 1512 1512 1512 1511
1507 1508 1508 1509 1508 1508 1508 1508 1507 1506 1504 1503 1503 1502 1502 1501 1501 1501 1501 1502 1503 1504 1505 1506 1507 1508 1508 1508 1508 1507 1507 1507 1507 1508 1508 1508 1508 1507
1503 1504 1505 1506 1505 1505 1506 1507 1506 1505 1504 1503 1502 1501 1501 1500 1500 1500 1500 1500 1501 1501 1502 1503 1503 1503 1503 1503 1503 1502 1502 1502 1502 1502 1503 1503 1503 1503
1499 1500 1501 1502 1502 1503 1504 1505 1505 1504 1503 1502 1501 1501 1500 1500 1499 1499 1500 1500 1500 1500 1500 1500 1500 1500 1500 1499 1499 1498 1498 1497 1497 1497 1497 1498 1498 1498
1496 1497 1497 1498 1499 1500 1501 1502 1502 1502 1502 1502 1501 1501 1500 1500 1499 1499 1499 1499 1499 1499 1499 1499 1498 1498 1498 1497 1496 1495 1494 1493 1493 1492 1492 1492 1493 1493
1493 1494 1494 1495 1496 1497 1498 1499 1499 1500 1500 1500 1500 1500 1500 1499 1499 1498 1498 1498 1498 1498 1497 1497 1497 1496 1496 1495 1494 1493 1492 1490 1489 1488 1488 1487 1487 1487
1491 1491 1492 1493 1494 1495 1496 1497 1498 1498 1499 1499 1499 1499 1499 1499 1498 1498 1498 1497 1497 1496 1495 1495 1495 1494 1494 1493 1492 1491 1489 1488 1486 1485 1484 1483 1482 1482
1491 1491 1491 1492 1492 1493 1494 1495 1496 1497 1497 1498 1498 1498 1498 1498 1498 1497 1497 1496 1496 1495 1494 1494 1493 1492 1491 1490 1489 1488 1487 1485 1484 1482 1481 1480 1479 1478
1491 1491 1492 1492 1493 1493 1494 1495 1496 1496 1497 1497 1498 1498 1498 1498 1497 1497 1496 1496 1495 1494 1494 1492 1491 1490 1489 1488 1487 1486 1484 1483 1481 1479 1478 1477 1476 1474
1493 1493 1494 1494 1495 1495 1496 1496 1497 1497 1498 1498 1498 1498 1498 1498 1497 1496 1496 1495 1494 1493 1492 1491 1490 1489 1488 1486 1485 1483 1482 1481 1479 1477 1475 1473 1472 1472
1496 1496 1497 1497 1498 1498 1498 1498 1498 1499 1499 1499 1499 1498 1498 1498 1497 1496 1496 1495 1494 1493 1491 1490 1488 1487 1487 1485 1483 1482 1480 1478 1476 1474 1472 1471 1469 1468
1500 1500 1500 1500 1501 1501 1501 1500 1500 1500 1500 1499 1499 1499 1498 1498 1497 1496 1495 1494 1493 1491 1490 1489 1487 1486 1485 1484 1481 1479 1477 1475 1473 1471 1469 1467 1465 1464
1505 1504 1504 1503 1503 1503 1502 1502 1502 1501 1501 1500 1499 1498 1498 1497 1496 1495 1494 1493 1491 1490 1489 1487 1486 1484 1482 1481 1479 1477 1476 1473 1471 1468 1466 1464 1462 1460
1508 1507 1506 1506 1505 1505 1504 1503 1503 1502 1501 1500 1499 1499 1498 1497 1496 1495 1494 1492 1490 1489 1487 1485 1483 1482 1481 1479 1477 1475 1474 1472 1469 1466 1464 1462 1460 1458
1510 1509 1508 1507 1506 1506 1505 1504 1503 1502 1501 1500 1499 1498 1498 1497 1496 1494 1493 1491 1489 1487 1485 1484 1482 1481 1479 1478 1476 1475 1473 1470 1468 1466 1464 1461 1459 1457